TimeCST,TemperatureF,Dew PointF,Humidity,Sea Level PressureIn,VisibilityMPH,Wind Direction,Wind SpeedMPH,Gust SpeedMPH,PrecipitationIn,Events,Conditions,WindDirDegrees,DateUTC
12:58 AM,27.0,25.0,92,30.44,10.0,Calm,Calm,-,N/A,,Clear,0,2013-11-14 06:58:00
1:58 AM,27.0,25.0,92,30.43,10.0,Calm,Calm,-,N/A,,Clear,0,2013-11-14 07:58:00
2:58 AM,26.1,24.1,92,30.43,10.0,Calm,Calm,-,N/A,,Clear,0,2013-11-14 08:58:00
3:58 AM,25.0,23.0,92,30.43,10.0,Calm,Calm,-,N/A,,Clear,0,2013-11-14 09:58:00
4:58 AM,24.1,21.9,91,30.43,10.0,Calm,Calm,-,N/A,,Clear,0,2013-11-14 10:58:00
5:58 AM,24.1,21.9,91,30.44,10.0,Calm,Calm,-,N/A,,Clear,0,2013-11-14 11:58:00
6:58 AM,26.1,23.0,88,30.45,10.0,Variable,6.9,-,N/A,,Clear,0,2013-11-14 12:58:00
7:58 AM,32.0,28.0,85,30.46,10.0,Calm,Calm,-,N/A,,Clear,0,2013-11-14 13:58:00
8:58 AM,44.1,28.0,53,30.46,10.0,SE,5.8,-,0.00,,Clear,130,2013-11-14 14:58:00
9:58 AM,48.9,21.9,35,30.44,10.0,SE,9.2,-,N/A,,Clear,140,2013-11-14 15:58:00
10:58 AM,53.1,19.9,27,30.41,10.0,ESE,6.9,-,N/A,,Clear,120,2013-11-14 16:58:00
11:58 AM,54.0,21.0,28,30.37,10.0,Calm,Calm,-,N/A,,Clear,0,2013-11-14 17:58:00
12:58 PM,57.0,27.0,32,30.32,10.0,SE,4.6,-,N/A,,Clear,130,2013-11-14 18:58:00
1:58 PM,55.9,28.0,34,30.30,10.0,Calm,Calm,-,N/A,,Clear,0,2013-11-14 19:58:00
2:58 PM,55.9,30.0,37,30.27,10.0,SSE,3.5,-,N/A,,Clear,160,2013-11-14 20:58:00
3:58 PM,54.0,30.0,40,30.27,10.0,ESE,3.5,-,N/A,,Clear,120,2013-11-14 21:58:00
4:58 PM,51.1,30.9,46,30.26,10.0,East,4.6,-,N/A,,Clear,100,2013-11-14 22:58:00
5:58 PM,43.0,36.0,76,30.25,10.0,Calm,Calm,-,N/A,,Clear,0,2013-11-14 23:58:00
6:58 PM,42.1,35.1,76,30.26,10.0,Calm,Calm,-,N/A,,Clear,0,2013-11-15 00:58:00
7:58 PM,42.1,37.0,82,30.24,10.0,Calm,Calm,-,N/A,,Partly Cloudy,0,2013-11-15 01:58:00
8:58 PM,41.0,37.0,86,30.23,10.0,Calm,Calm,-,N/A,,Clear,0,2013-11-15 02:58:00
9:58 PM,43.0,37.9,82,30.23,10.0,Calm,Calm,-,N/A,,Overcast,0,2013-11-15 03:58:00
10:58 PM,45.0,39.9,82,30.21,10.0,Calm,Calm,-,N/A,,Overcast,0,2013-11-15 04:58:00
11:58 PM,50.0,41.0,71,30.20,10.0,Calm,Calm,-,N/A,,Overcast,0,2013-11-15 05:58:00